Weather History for K06D - June, 2013

Change the Weather History Date:

Tuesday, June 18, 2013

  Actual Average (KRUG) Record (KRUG)
Temperature  
Mean Temperature 60 °F -  
Max Temperature 73 °F 76 °F 100 °F (1988)
Min Temperature 48 °F 51 °F 41 °F (1976)
Degree Days  
Heating Degree Days 4    
Growing Degree Days 10 (Base 50)    
Moisture  
Dew Point 50 °F    
Average Humidity 67    
Maximum Humidity 100    
Minimum Humidity 36    
Precipitation  
Precipitation 0.00 in - - ()
Sea Level Pressure  
Sea Level Pressure 30.06 in    
Wind  
Wind Speed 4 mph (WSW)    
Max Wind Speed 12 mph    
Max Gust Speed 18 mph    
Visibility 10 miles    
Events      
Averages and records for this station are not official NWS values.
T = Trace of Precipitation, MM = Missing Value Source: NWS Daily Summary

Daily Weather History Graph

Daily Weather History Graph

Search for Another Location

Airport or City:

Trip Planner

Search our weather history database for the weather conditions in past years. The results will help you decide how hot, cold, wet, or windy it might be!

Date:

Astronomy

Jun. 18, 2013 Rise Set
Actual Time 5:34 AM CDT 9:45 PM CDT
Civil Twilight 4:51 AM CDT 10:27 PM CDT
Nautical Twilight 3:50 AM CDT 11:28 PM CDT
Astronomical Twilight 2:12 AM CDT 1:07 AM CDT
Moon 4:11 PM CDT (6/18) 2:07 AM CDT (6/18)
Length of Visible Light 17h 36m
Length of Day
16h 10m
Waxing Gibbous, 71% of the Moon is Illuminated
Jun 18
Waxing Gibbous
Jun 23
Full
Jun 29
Last Quarter
Jul 8
New
Jul 15
First Quarter

Hourly Weather History & Observations

Time (CDT) Temp. Dew Point Humidity Pressure Visibility Wind Dir Wind Speed Gust Speed Precip Events Conditions
12:15 AM 53.6 °F 53.6 °F 100% 30.11 in 10.0 mi WNW 3.5 mph - N/A   Clear
12:35 AM 51.8 °F 51.8 °F 100% 30.11 in 10.0 mi Calm Calm - N/A   Clear
12:55 AM 50.0 °F 50.0 °F 100% 30.11 in 10.0 mi WNW 3.5 mph - N/A   Clear
1:15 AM 50.0 °F 50.0 °F 100% 30.10 in 10.0 mi Calm Calm - N/A   Clear
1:35 AM 50.0 °F 50.0 °F 100% 30.11 in 10.0 mi Calm Calm - N/A   Partly Cloudy
1:55 AM 51.8 °F 51.8 °F 100% 30.11 in 10.0 mi Calm Calm - N/A   Mostly Cloudy
2:15 AM 50.0 °F 50.0 °F 100% 30.11 in 10.0 mi Calm Calm - N/A   Overcast
2:35 AM 51.8 °F 51.8 °F 100% 30.12 in 10.0 mi Calm Calm - N/A   Overcast
2:55 AM 51.8 °F 51.8 °F 100% 30.11 in 10.0 mi Calm Calm - N/A   Overcast
3:15 AM 51.8 °F 51.8 °F 100% 30.11 in 10.0 mi Calm Calm - N/A   Mostly Cloudy
3:35 AM 51.8 °F 51.8 °F 100% 30.11 in 10.0 mi Calm Calm - N/A   Partly Cloudy
3:55 AM 50.0 °F 50.0 °F 100% 30.11 in 10.0 mi Calm Calm - N/A   Clear
4:15 AM 48.2 °F 48.2 °F 100% 30.11 in 10.0 mi Calm Calm - N/A   Clear
4:35 AM 48.2 °F 48.2 °F 100% 30.11 in 10.0 mi Calm Calm - N/A   Clear
4:55 AM 48.2 °F 48.2 °F 100% 30.11 in 10.0 mi WNW 3.5 mph - N/A   Clear
5:15 AM 48.2 °F 48.2 °F 100% 30.11 in 10.0 mi Calm Calm - N/A   Scattered Clouds
5:35 AM 48.2 °F 48.2 °F 100% 30.12 in 10.0 mi WNW 3.5 mph - N/A   Overcast
5:55 AM 48.2 °F 48.2 °F 100% 30.12 in 10.0 mi Calm Calm - N/A   Mostly Cloudy
6:15 AM 50.0 °F 50.0 °F 100% 30.12 in 10.0 mi WNW 3.5 mph - N/A   Partly Cloudy
6:35 AM 48.2 °F 48.2 °F 100% 30.12 in 10.0 mi Calm Calm - N/A   Clear
6:55 AM 50.0 °F 50.0 °F 100% 30.12 in 10.0 mi Calm Calm - N/A   Clear
7:15 AM 53.6 °F 53.6 °F 100% 30.12 in 10.0 mi Calm Calm - N/A   Clear
7:35 AM 57.2 °F 55.4 °F 94% 30.12 in 10.0 mi Calm Calm - N/A   Clear
7:55 AM 59.0 °F 55.4 °F 88% 30.12 in 10.0 mi Calm Calm - N/A   Clear
8:15 AM 60.8 °F 55.4 °F 82% 30.11 in 10.0 mi Calm Calm - N/A   Clear
8:35 AM 62.6 °F 53.6 °F 72% 30.12 in 10.0 mi WSW 5.8 mph - N/A   Clear
8:55 AM 64.4 °F 53.6 °F 68% 30.12 in 10.0 mi WSW 4.6 mph - N/A   Clear
9:15 AM 64.4 °F 53.6 °F 68% 30.11 in 10.0 mi WSW 6.9 mph - N/A   Clear
9:35 AM 64.4 °F 53.6 °F 68% 30.11 in 10.0 mi WSW 5.8 mph - N/A   Clear
9:55 AM 66.2 °F 51.8 °F 60% 30.11 in 10.0 mi WSW 9.2 mph - N/A   Clear
10:15 AM 66.2 °F 53.6 °F 64% 30.10 in 10.0 mi SSW 9.2 mph - N/A   Clear
10:35 AM 66.2 °F 51.8 °F 60% 30.10 in 10.0 mi WSW 6.9 mph - N/A   Clear
10:55 AM 66.2 °F 51.8 °F 60% 30.10 in 10.0 mi SSW 9.2 mph - N/A   Partly Cloudy
11:15 AM 68.0 °F 50.0 °F 52% 30.09 in 10.0 mi WSW 10.4 mph - N/A   Unknown
11:35 AM 68.0 °F 50.0 °F 52% 30.09 in 10.0 mi SSW 11.5 mph - N/A   Unknown
11:55 AM 68.0 °F 50.0 °F 52% 30.09 in 10.0 mi SW 11.5 mph 17.3 mph N/A   Unknown
12:15 PM 69.8 °F 50.0 °F 49% 30.09 in 10.0 mi SSW 8.1 mph - N/A   Unknown
12:35 PM 68.0 °F 50.0 °F 52% 30.08 in 10.0 mi WSW 10.4 mph 16.1 mph N/A   Unknown
12:55 PM 69.8 °F 48.2 °F 46% 30.08 in 10.0 mi WSW 8.1 mph - N/A   Unknown
1:15 PM 69.8 °F 48.2 °F 46% 30.07 in 10.0 mi West 9.2 mph - N/A   Unknown
1:35 PM 69.8 °F 48.2 °F 46% 30.06 in 10.0 mi SSW 6.9 mph - N/A   Unknown
1:55 PM 71.6 °F 48.2 °F 43% 30.06 in 10.0 mi SSW 5.8 mph - N/A   Unknown
2:15 PM 71.6 °F 48.2 °F 43% 30.05 in 10.0 mi WSW 11.5 mph 18.4 mph N/A   Unknown
2:35 PM 71.6 °F 48.2 °F 43% 30.05 in 10.0 mi SW 6.9 mph - N/A   Unknown
2:55 PM 71.6 °F 46.4 °F 41% 30.05 in 10.0 mi WNW 6.9 mph - N/A   Unknown
3:15 PM 71.6 °F 46.4 °F 41% 30.04 in 10.0 mi WSW 10.4 mph - N/A   Unknown
3:35 PM 73.4 °F 46.4 °F 38% 30.04 in 10.0 mi West 8.1 mph 16.1 mph N/A   Unknown
3:55 PM 73.4 °F 46.4 °F 38% 30.04 in 10.0 mi South 3.5 mph - N/A   Unknown
4:15 PM 73.4 °F 46.4 °F 38% 30.03 in 10.0 mi SW 11.5 mph - N/A   Unknown
4:35 PM 73.4 °F 46.4 °F 38% 30.03 in 10.0 mi SSW 6.9 mph - N/A   Clear
4:55 PM 73.4 °F 46.4 °F 38% 30.02 in 10.0 mi WSW 10.4 mph - N/A   Scattered Clouds
5:15 PM 73.4 °F 46.4 °F 38% 30.01 in 10.0 mi West 8.1 mph - N/A   Partly Cloudy
5:35 PM 73.4 °F 44.6 °F 36% 30.01 in 10.0 mi West 6.9 mph - N/A   Clear
5:55 PM 73.4 °F 44.6 °F 36% 30.00 in 10.0 mi South 4.6 mph - N/A   Clear
6:15 PM 73.4 °F 46.4 °F 38% 30.00 in 10.0 mi WNW 5.8 mph - N/A   Clear
6:35 PM 73.4 °F 46.4 °F 38% 30.00 in 10.0 mi WSW 5.8 mph - N/A   Clear
6:55 PM 73.4 °F 46.4 °F 38% 29.99 in 10.0 mi WSW 8.1 mph - N/A   Clear
7:15 PM 73.4 °F 44.6 °F 36% 29.99 in 10.0 mi West 10.4 mph - N/A   Clear
7:35 PM 73.4 °F 46.4 °F 38% 29.98 in 10.0 mi WSW 4.6 mph - N/A   Clear
7:55 PM 73.4 °F 44.6 °F 36% 29.98 in 10.0 mi West 4.6 mph - N/A   Clear
8:15 PM 73.4 °F 46.4 °F 38% 29.98 in 10.0 mi West 6.9 mph - N/A   Clear
8:35 PM 71.6 °F 46.4 °F 41% 29.98 in 10.0 mi West 4.6 mph - N/A   Clear
8:55 PM 71.6 °F 46.4 °F 41% 29.98 in 10.0 mi West 4.6 mph - N/A   Clear
9:15 PM 69.8 °F 46.4 °F 43% 29.98 in 10.0 mi West 3.5 mph - N/A   Clear
9:35 PM 66.2 °F 50.0 °F 56% 29.99 in 10.0 mi WSW 5.8 mph - N/A   Clear
9:55 PM 64.4 °F 50.0 °F 59% 29.99 in 10.0 mi WSW 5.8 mph - N/A   Clear
10:15 PM 60.8 °F 50.0 °F 68% 30.00 in 10.0 mi West 4.6 mph - N/A   Clear
10:35 PM 59.0 °F 48.2 °F 67% 29.99 in 10.0 mi West 4.6 mph - N/A   Clear
10:55 PM 60.8 °F 53.6 °F 77% 29.99 in 10.0 mi Calm Calm - N/A   Clear
11:15 PM 59.0 °F 53.6 °F 82% 29.98 in 10.0 mi Calm Calm - N/A   Clear
11:35 PM 60.8 °F 51.8 °F 72% 29.97 in 10.0 mi Calm Calm - N/A   Clear
11:55 PM 59.0 °F 53.6 °F 82% 29.97 in 10.0 mi Calm Calm - N/A   Clear